Location: Bailey Inglish Elementary School
(33.5826°N, 96.1780°W)
Time: 16:29:18
(UTC+00:00)

ISS - Pass Details

Date: 25 June 2024
Orbit: 410 x 424 km, 51.6° (Epoch: 16 July)

Event Time Altitude Azimuth Distance (km) Brightness Sun altitude
Exits shadow 09:30:27 20° 301° (WNW) 1,014 -2.0 -18.3°
Maximum altitude 09:31:18 22° 325° (NW) 947 -1.9 -18.2°
Drops below altitude 10° 09:34:01 10° 19° (NNE) 1,490 0.0 -17.8°
Sets 09:36:25 0° 35° (NE) 2,359 1.7 -17.5°
